Location: Caltech
(34.1382°N, 118.1253°W)
Time: 07:12:12
(UTC-07:00)

Aureole 3 Rocket - Visible Passes

Search period start: 25 June 2016 00:00
Search period end: 05 July 2016 00:00
Orbit: 400 x 1746 km, 82.5° (Epoch: 24 June)

Date Brightness Start Highest point End Pass type
(mag) Time Alt. Az. Time Alt. Az. Time Alt. Az.
25 Jun 6.8 01:35:14 10° NW 01:39:56 15° WNW 01:43:26 12° W visible
25 Jun 6.7 21:08:21 10° NE 21:11:49 12° ENE 21:15:09 10° E visible
25 Jun 5.1 22:51:29 10° N 23:01:41 61° E 23:04:28 46° SE visible
26 Jun 6.0 00:40:03 10° NNW 00:48:25 31° W 00:51:14 26° WSW visible
26 Jun 5.8 21:59:35 10° NNE 22:08:23 32° ENE 22:12:16 24° ESE visible
26 Jun 5.2 23:46:31 10° NNW 23:56:29 60° W 23:59:01 47° SW visible
27 Jun 6.5 21:09:02 10° NNE 21:14:32 16° ENE 21:19:36 10° E visible
27 Jun 4.9 22:53:44 10° N 23:04:01 76° E 23:06:49 50° SSE visible
28 Jun 6.3 00:43:03 10° NNW 00:50:15 23° WNW 00:53:34 19° WSW visible
28 Jun 5.5 22:01:36 10° N 22:10:54 40° ENE 22:14:36 29° ESE visible
28 Jun 5.5 23:49:06 10° NNW 23:58:31 47° W 00:01:22 36° SW visible
29 Jun 6.3 21:10:26 10° NNE 21:17:11 20° ENE 21:22:24 12° ESE visible
29 Jun 4.8 22:56:06 10° N 23:06:14 88° W 23:09:10 48° S visible
30 Jun 6.6 00:46:25 10° NW 00:52:00 17° WNW 00:55:55 13° WSW visible
30 Jun 5.2 22:03:43 10° N 22:13:20 49° ENE 22:16:58 33° SE visible
30 Jun 5.8 23:51:50 10° NNW 00:00:25 36° W 00:03:44 27° WSW visible
01 Jul 6.0 21:12:09 10° NNE 21:19:47 25° ENE 21:24:46 15° ESE visible
01 Jul 4.9 22:58:33 10° N 23:08:22 71° W 23:11:31 42° SSW visible
02 Jul 6.9 00:50:44 10° NW 00:53:38 12° WNW 00:56:24 10° W visible
02 Jul 4.9 22:05:57 10° N 22:15:40 62° E 22:19:19 35° SE visible
02 Jul 6.2 23:54:45 10° NNW 00:02:13 27° W 00:06:04 19° WSW visible
03 Jul 5.7 21:14:04 10° NNE 21:22:18 31° ENE 21:27:08 18° ESE visible
03 Jul 5.2 23:01:05 10° NNW 23:10:23 55° W 23:13:52 33° SSW visible
04 Jul 4.7 22:08:16 10° N 22:17:55 77° E 22:21:41 35° SSE visible
